Flag for Germany Weather past 2 weeks in Datteln, North Rhine-Westphalia, Germany

Now
41 °F

Light rain. Passing clouds.


Feels Like: 34 °F
Forecast: 39 / 46 °F
Wind: 12 mph from West

Location: Dortmund / Wickede

Current Time: Dec 20, 2014 at 8:35:44 PM

Latest Report: Dec 20, 2014 at 7:50 PM


Visibility: N/A

Pressure: 30.15 "Hg

Humidity: 81%

Dew point: 36 °F

Location of DattelnLocation

Historic Weather in Datteln — Graph

°F

Datteln temperature yesterday

Maximum temperature yesterday: 52 °F (at 5:20 AM)
Minimum temperature yesterday: 41 °F (at 8:50 PM)
Average temperature yesterday: 47 °F

Past Weeks' High & Low Weather Summary

 TemperatureHumidityPressure
High54 °F (Dec 18, 5:20 PM)93% (Dec 6, 5:50 AM)30.36 "Hg (Dec 6, 5:50 AM)
Low32 °F (Dec 14, 10:50 PM)57% (Dec 7, 2:20 PM)29.39 "Hg (Dec 12, 12:50 PM)
Average41 °F82%29.92 "Hg
* Reported Dec 5 7:20 PM — Dec 20 7:20 PM, Datteln, Weather by CustomWeather, © 2014

Note: Actual official high and low records may vary slightly from our data, if they occured in-between our weather recording intervals... More about our weather records

Advertising

Datteln weather history for previous 24 hours

 ConditionsComfort  
Time TempWeatherWind HumidityBarometerVisibility
7:20 PM
Dec 20
41 °FLight rain. Passing clouds.13 mph81%30.12 "HgN/A
6:50 PM43 °FLight rain. Passing clouds.14 mph76%30.12 "HgN/A
6:20 PM41 °FLight rain. Passing clouds.13 mph81%30.09 "HgN/A
5:50 PM37 °FThundershowers. Passing clouds.18 mph81%30.09 "Hg4 mi
5:20 PM43 °FPassing clouds.20 mph76%30.04 "HgN/A
4:50 PM43 °FLight rain. Passing clouds.17 mph76%30.04 "HgN/A
4:20 PM43 °FLight rain. Partly sunny.20 mph76%30.04 "HgN/A
3:50 PM43 °FLight rain. Partly sunny.22 mph76%30.01 "HgN/A
3:20 PM43 °FPartly sunny.22 mph81%30.01 "HgN/A
2:50 PM43 °FLight rain. Partly sunny.21 mph81%30.01 "HgN/A
2:20 PM43 °FLight rain. Partly sunny.18 mph81%30.01 "HgN/A
1:50 PM41 °FLight rain. Partly sunny.22 mph87%30.01 "HgN/A
1:20 PM41 °FLight rain. Partly sunny.21 mph87%30.04 "HgN/A
12:50 PM43 °FSprinkles. Partly sunny.21 mph76%30.04 "HgN/A
12:20 PM43 °FSprinkles. Partly sunny.22 mph76%30.04 "Hg5 mi
11:50 AM43 °FSprinkles. Partly sunny.22 mph76%30.04 "Hg4 mi
11:20 AM41 °FPartly sunny.23 mph81%30.07 "HgN/A
10:50 AM43 °FPartly sunny.21 mph76%30.07 "HgN/A
10:20 AM41 °FScattered clouds.23 mph81%30.07 "HgN/A
9:50 AM41 °FScattered clouds.23 mph81%30.07 "HgN/A
9:20 AM41 °FScattered clouds.23 mph81%30.07 "HgN/A
8:50 AM41 °FPartly sunny.21 mph81%30.07 "HgN/A
8:20 AM41 °FPassing clouds.23 mph81%30.07 "HgN/A
7:50 AM41 °FPassing clouds.22 mph76%30.07 "HgN/A
7:20 AM41 °FPassing clouds.18 mph81%30.07 "HgN/A
6:50 AM41 °FPassing clouds.22 mph81%30.09 "HgN/A
6:20 AM41 °FPassing clouds.21 mph81%30.09 "HgN/A
5:50 AM41 °FPassing clouds.21 mph81%30.09 "HgN/A
5:20 AM41 °FPassing clouds.18 mph76%30.09 "HgN/A
10:50 PM
Dec 19
41 °FPassing clouds.15 mph81%30.04 "HgN/A
10:20 PM41 °FPassing clouds.15 mph81%30.04 "HgN/A
9:50 PM41 °FPassing clouds.15 mph81%30.04 "HgN/A
9:20 PM41 °FPassing clouds.14 mph81%30.04 "HgN/A
8:50 PM41 °FPassing clouds.15 mph81%30.01 "HgN/A
8:20 PM43 °FPassing clouds.14 mph76%30.01 "HgN/A
Weather by CustomWeather, © 2014

See weather overviewHow to use our weather pages